Regional Weather Roundup
Issued by NWS

Home | Current Version | Previous Version | Text Only | Print | Product List | Glossary Off
Versions: 1 2 3 4 5 6 7 8 9 10 11 12 13 14 15 16 17 18 19 20 21 22 23 24 25 26 27 28

000
ASUS45 KSLC 181610
RWRUT

UTAH REGIONAL WEATHER ROUNDUP
NATIONAL WEATHER SERVICE SALT LAKE CITY UT
900 AM MST SAT NOV 18 2017

UTZ001>011-023>025-181700-

NORTHERN UTAH

CITY           SKY/WX    TMP DP  RH WIND       PRES   REMARKS
BRIGHAM CITY   SUNNY     30  24  77 CALM      30.47R
HILL AFB       SUNNY     27  18  67 E15       30.44S WCI  15
LOGAN          SUNNY     29  23  78 CALM      30.45R
OGDEN          SUNNY     29  20  69 S8        30.44S WCI  21
SALT LAKE CITY MOSUNNY   33  21  61 SE9       30.46S WCI  25
TOOELE VALLEY  SUNNY     30  23  74 S9        30.46S WCI  22
WENDOVER       SUNNY     27  20  75 CALM      30.47R
HEBER CITY       N/A     23  14  68 CALM      30.45S
WEST JORDAN    SUNNY     30  24  75 S3        30.47R

$$

UTZ011>015-024>027-181700-

CENTRAL/NORTHEAST UTAH

CITY           SKY/WX    TMP DP  RH WIND       PRES   REMARKS
PROVO AIRPORT  MOSUNNY   30  22  72 SE5       30.49R WCI  25
MOAB/CANYONLAN SUNNY     34  15  46 CALM      30.43R
DELTA          MOSUNNY   25  21  86 CALM      30.46R
PRICE          SUNNY     27  14  58 CALM      30.41R
RICHFIELD      SUNNY     21  21 100 CALM      30.49
ROOSEVELT      MOSUNNY   27  14  59 NE3       30.46S
VERNAL         SUNNY     28  13  53 CALM      30.44R

$$

UTZ013>016-019>022-027-181700-

SOUTHERN UTAH

CITY           SKY/WX    TMP DP  RH WIND       PRES   REMARKS
BRYCE CANYON   SUNNY     17  12  80 W6        30.39S WCI   9
CEDAR CITY     SUNNY     23  19  85 CALM      30.40R
MILFORD        SUNNY     24  21  88 CALM      30.43R
ST GEORGE      MOSUNNY   40  13  33 SE3       30.43R
HANKSVILLE     SUNNY     30  12  47 CALM      30.48R
KANAB          SUNNY     36  10  35 N15       30.43  WCI  26
BLANDING         N/A     34   7  32 CALM      30.46R

$$

REGIONAL REPORTS     COLORADO/ARIZONA

CITY           SKY/WX    TMP DP  RH WIND       PRES   REMARKS
CRAIG, CO      CLOUDY    14  11  87 CALM      30.44R
GRAND JUNCTION SUNNY     30  22  72 CALM      30.45R
RIFLE, CO      CLOUDY    20  16  84 CALM      30.47R
MONTROSE, CO   SUNNY     26  17  68 SE8       30.47R WCI  18
CORTEZ, CO     CLOUDY    32  15  49 E6        30.37R WCI  26
COLORADO CITY    N/A     43  12  28 NE8       30.41R
PAGE, AZ       SUNNY     40  13  33 E5        30.42R
GRAND CANYON   SUNNY     35   9  33 E17       30.36R WCI  25
KINGMAN, AZ    SUNNY     46  19  34 N8        30.31R
FLAGSTAFF, AZ  SUNNY     33   4  29 E14G24    30.36R WCI  23

$$

REGIONAL REPORTS    NEVADA/IDAHO/WYOMING

CITY           SKY/WX    TMP DP  RH WIND       PRES   REMARKS
LAS VEGAS, NV  SUNNY     50  17  27 SE7       30.37R
ELY, NY        MOSUNNY   13   8  81 S12       30.41R WCI  -1
ELKO, NV       SUNNY     22  17  81 E5        30.41R WCI  16
POCATELLO, ID  CLOUDY    31  22  69 SW5       30.43R WCI  26
BURLEY, ID     SUNNY     31  20  63 S12       30.42R WCI  22
FORT BRIDGER,    N/A     18  12  79 SW14      30.39R WCI   4
EVANSTON, WY   CLOUDY    14  11  87 SW9       30.38R WCI   2
ROCK SPRINGS,  CLOUDY    20  13  74 SW15      30.34S WCI   6

$$




USA.gov is the U.S. government's official web portal to all federal, state and local government web resources and services.